Location: Newark
(36.7000°N, 45.1333°E)
Time: 00:24:11
(UTC+00:00)

Hubble Space Telescope - Pass Details

Date: 31 January 2020
Orbit: 536 x 540 km, 28.5° (Epoch: 16 February)

Event Time Altitude Azimuth Distance (km) Brightness Sun altitude
Exits shadow 02:13:40 11° 191° (SSW) 1,706 3.3 -22.0°
Maximum altitude 02:15:34 14° 162° (SSE) 1,520 3.3 -21.7°
Drops below altitude 10° 02:17:48 10° 129° (SE) 1,777 4.2 -21.2°
Sets 02:20:56 0° 104° (ESE) 2,669 5.9 -20.6°
